User: anonymous   Login
Location: Unspecified
(0.0000°N, 0.0000°E)
Time: 19:13:39
(UTC+00:00)
Language:

TBA - TO BE ASSIGNED - Orbit

View from above orbital plane
View from above orbital plane
View from above satellite
View from above satellite

Ground track
Ground track

The orbit is defined by the following mean orbital elements,

1 68790U          26145.53154197 +.00000000 +00000-0 +15249-2 0 00009
2 68790  97.2853 182.4499 0000751  61.2184 298.9156 15.75274063    08
Epoch (UTC): 25 May 2026 12:45:25
Eccentricity: 0.0000751
inclination: 97.2853°
perigee height: 343 km
apogee height: 344 km
right ascension of ascending node: 182.4499°
argument of perigee: 61.2184°
revolutions per day: 15.75274063
mean anomaly at epoch: 298.9156°

The dashed part of the orbit path shows where the satellite is in the earth's shadow,  

DLR